Date String (YYYY-MM-DD hh:mm:ss) UTC,Instrument flags,Ambient pressure (hPa),Sample flow (lpm),Bypass flow (lpm),Sample temperature (°C),Ambient temperature (°C),ASC tube jacket temperature (°C),LED temperature (°C),Box temperature (°C),Sample RH (%),Span deviation,Mass concentration (μg/m³),Mass concentration (μg/m³),Mass concentration (μg/m³)
DateTimeUTC,F1_M11,P_M11,Q1_M11,Q2_M11,T1_M11,T2_M11,T3_M11,T4_M11,T5_M11,U1_M11,ZSPAN_M11,X0_M11,X2_M11,X1_M11
2022-11-24 21:00:00,,0834.9,5.01,0.00,24.4,23.2,00.0,33.3,26.3,11.1,0000.0,0000.58,0000.39,0000.34
2022-11-24 21:01:00,,0835.0,5.00,0.00,24.4,23.1,00.0,33.3,26.3,11.1,0000.0,0000.62,0000.41,0000.35
2022-11-24 21:02:00,,0834.9,4.99,0.00,24.4,23.1,00.0,33.2,26.3,11.1,0000.0,0000.71,0000.43,0000.35
2022-11-24 21:03:00,,0834.9,4.99,0.00,24.4,23.1,00.0,33.2,26.3,11.1,0000.0,0000.71,0000.43,0000.35
2022-11-24 21:04:00,,0834.9,5.00,0.00,24.4,23.1,00.0,33.2,26.3,11.1,0000.0,0000.67,0000.41,0000.35
2022-11-24 21:05:00,,0835.0,5.01,0.00,24.4,23.2,00.0,33.2,26.3,11.3,0000.0,0000.65,0000.41,0000.36
2022-11-24 21:06:00,,0835.0,5.01,0.00,24.4,23.2,00.0,33.2,26.3,11.1,0000.0,0000.66,0000.42,0000.36
2022-11-24 21:07:00,,0835.0,4.98,0.00,24.4,23.2,00.0,33.2,26.3,11.1,0000.0,0000.65,0000.42,0000.37
2022-11-24 21:08:00,,0834.9,5.02,0.00,24.4,23.3,00.0,33.3,26.3,11.2,0000.0,0000.63,0000.42,0000.37
2022-11-24 21:09:00,,0834.9,4.99,0.00,24.4,23.3,00.0,33.3,26.3,11.2,0000.0,0000.63,0000.42,0000.37
2022-11-24 21:10:00,,0834.9,5.01,0.00,24.4,23.3,00.0,33.3,26.3,11.1,0000.0,0000.66,0000.43,0000.37
2022-11-24 21:11:00,,0835.0,4.98,0.00,24.4,23.3,00.0,33.3,26.3,11.1,0000.0,0000.66,0000.42,0000.37
2022-11-24 21:12:00,,0834.9,5.02,0.00,24.4,23.3,00.0,33.3,26.3,11.1,0000.0,0000.63,0000.41,0000.36
2022-11-24 21:13:00,,0834.9,4.99,0.00,24.4,23.3,00.0,33.3,26.3,11.1,0000.0,0000.47,0000.37,0000.36
2022-11-24 21:14:00,,0834.8,5.02,0.00,24.4,23.2,00.0,33.3,26.3,11.0,0000.0,0000.47,0000.37,0000.36
2022-11-24 21:15:00,,0834.8,4.99,0.00,24.4,23.2,00.0,33.3,26.3,11.1,0000.0,0000.48,0000.38,0000.36
2022-11-24 21:16:00,,0834.8,4.98,0.00,24.4,23.2,00.0,33.3,26.3,11.1,0000.0,0000.69,0000.38,0000.36
2022-11-24 21:17:00,,0834.7,5.01,0.00,24.4,23.2,00.0,33.3,26.3,11.0,0000.0,0000.72,0000.38,0000.35
2022-11-24 21:18:00,,0834.7,5.00,0.00,24.4,23.2,00.0,33.3,26.3,11.1,0000.0,0000.72,0000.38,0000.35
2022-11-24 21:19:00,,0834.8,5.01,0.00,24.4,23.2,00.0,33.3,26.3,11.1,0000.0,0000.73,0000.38,0000.36
2022-11-24 21:20:00,,0834.8,5.00,0.00,24.4,23.2,00.0,33.3,26.3,11.2,0000.0,0000.76,0000.40,0000.36
2022-11-24 21:21:00,,0834.8,4.99,0.00,24.4,23.3,00.0,33.3,26.4,11.2,0000.0,0000.74,0000.39,0000.36
2022-11-24 21:22:00,,0834.8,5.02,0.00,24.4,23.3,00.0,33.3,26.4,11.1,0000.0,0002.21,0000.40,0000.37
2022-11-24 21:23:00,,0834.7,5.00,0.00,24.4,23.4,00.0,33.3,26.4,11.0,0000.0,0002.41,0000.41,0000.38
2022-11-24 21:24:00,,0834.7,4.99,0.00,24.4,23.3,00.0,33.3,26.4,11.0,0000.0,0002.42,0000.42,0000.39
2022-11-24 21:25:00,,0834.7,5.01,0.00,24.5,23.4,00.0,33.3,26.4,11.0,0000.0,0003.26,0000.44,0000.40
2022-11-24 21:26:00,,0834.7,4.99,0.00,24.5,23.4,00.0,33.3,26.4,11.0,0000.0,0003.87,0000.44,0000.40
2022-11-24 21:27:00,,0834.7,5.01,0.00,24.5,23.4,00.0,33.3,26.4,11.1,0000.0,0003.73,0000.45,0000.41
2022-11-24 21:28:00,,0834.7,4.99,0.00,24.5,23.4,00.0,33.3,26.4,10.9,0000.0,0003.82,0000.48,0000.42
2022-11-24 21:29:00,,0834.7,5.01,0.00,24.5,23.4,00.0,33.3,26.5,10.9,0000.0,0003.86,0000.50,0000.43
2022-11-24 21:30:00,,0834.7,4.99,0.00,24.5,23.5,00.0,33.3,26.5,10.9,0000.0,0003.95,0000.54,0000.44
2022-11-24 21:31:00,,0834.7,5.02,0.00,24.5,23.5,00.0,33.3,26.4,10.9,0000.0,0003.95,0000.54,0000.44
2022-11-24 21:32:00,,0834.7,4.99,0.00,24.5,23.5,00.0,33.4,26.5,10.9,0000.0,0003.95,0000.55,0000.45
2022-11-24 21:33:00,,0834.7,5.00,0.00,24.5,23.5,00.0,33.4,26.5,10.9,0000.0,0002.97,0000.55,0000.45
2022-11-24 21:34:00,,0834.7,5.01,0.00,24.5,23.5,00.0,33.4,26.5,11.0,0000.0,0002.31,0000.55,0000.45
2022-11-24 21:35:00,,0834.6,4.99,0.00,24.5,23.5,00.0,33.4,26.5,10.9,0000.0,0002.30,0000.55,0000.45
2022-11-24 21:36:00,,0834.7,5.01,0.00,24.6,23.6,00.0,33.4,26.5,11.0,0000.0,0001.64,0000.53,0000.45
2022-11-24 21:37:00,,0834.7,4.98,0.00,24.6,23.6,00.0,33.4,26.5,11.0,0000.0,0000.85,0000.52,0000.45
2022-11-24 21:38:00,,0834.7,5.01,0.00,24.6,23.6,00.0,33.4,26.5,10.9,0000.0,0000.84,0000.52,0000.45
2022-11-24 21:39:00,,0834.7,4.99,0.00,24.6,23.6,00.0,33.4,26.5,10.8,0000.0,0000.68,0000.49,0000.44
2022-11-24 21:40:00,,0834.7,5.00,0.00,24.6,23.6,00.0,33.4,26.6,10.8,0000.0,0000.65,0000.48,0000.44
2022-11-24 21:41:00,,0834.7,5.01,0.00,24.6,23.6,00.0,33.4,26.6,10.8,0000.0,0000.56,0000.45,0000.44
2022-11-24 21:42:00,,0834.7,4.99,0.00,24.6,23.6,00.0,33.5,26.6,10.8,0000.0,0000.56,0000.45,0000.44
2022-11-24 21:43:00,,0834.7,5.02,0.00,24.6,23.6,00.0,33.5,26.6,10.9,0000.0,0000.59,0000.46,0000.45
2022-11-24 21:44:00,,0834.7,4.99,0.00,24.6,23.6,00.0,33.5,26.6,10.8,0000.0,0000.98,0000.46,0000.45
2022-11-24 21:45:00,,0834.7,5.00,0.00,24.7,23.7,00.0,33.5,26.6,10.8,0000.0,0001.66,0000.48,0000.45
2022-11-24 21:46:00,,0834.7,5.01,0.00,24.7,23.7,00.0,33.5,26.6,10.8,0000.0,0001.70,0000.50,0000.45
2022-11-24 21:47:00,,0834.7,4.99,0.00,24.7,23.7,00.0,33.5,26.6,10.7,0000.0,0001.75,0000.52,0000.46
2022-11-24 21:48:00,,0834.7,5.01,0.00,24.7,23.7,00.0,33.5,26.6,10.7,0000.0,0001.78,0000.53,0000.46
2022-11-24 21:49:00,,0834.7,4.99,0.00,24.7,23.7,00.0,33.5,26.7,10.7,0000.0,0001.85,0000.55,0000.46
2022-11-24 21:50:00,,0834.7,5.00,0.00,24.7,23.7,00.0,33.5,26.7,10.7,0000.0,0001.89,0000.56,0000.47
2022-11-24 21:51:00,,0834.7,5.00,0.00,24.7,23.8,00.0,33.6,26.7,10.8,0000.0,0001.88,0000.55,0000.46
2022-11-24 21:52:00,,0834.7,4.99,0.00,24.7,23.8,00.0,33.6,26.7,10.8,0000.0,0001.90,0000.56,0000.46
2022-11-24 21:53:00,,0834.7,5.00,0.00,24.8,23.8,00.0,33.6,26.7,10.8,0000.0,0001.91,0000.56,0000.46
2022-11-24 21:54:00,,0834.7,5.01,0.00,24.8,23.8,00.0,33.6,26.7,10.8,0000.0,0001.88,0000.56,0000.46
2022-11-24 21:55:00,,0834.7,5.00,0.00,24.8,23.8,00.0,33.6,26.8,10.8,0000.0,0001.67,0000.55,0000.46
2022-11-24 21:56:00,,0834.7,4.99,0.00,24.8,23.8,00.0,33.6,26.8,10.7,0000.0,0000.81,0000.53,0000.46
2022-11-24 21:57:00,,0834.7,5.00,0.00,24.8,23.9,00.0,33.6,26.8,10.8,0000.0,0000.80,0000.53,0000.45
2022-11-24 21:58:00,,0834.7,5.01,0.00,24.9,23.9,00.0,33.6,26.8,11.0,0000.0,0000.75,0000.51,0000.45
2022-11-24 21:59:00,,0834.7,5.00,0.00,24.9,23.9,00.0,33.7,26.8,10.8,0000.0,0000.75,0000.52,0000.44
